Theta_e
310 310 311 311 311 312 312 313 313 312 312 313 313 314 314 315 315 320 317 316 316 318 319 322 321 322 318 315 315 316 311 312 314 316 315 314 314 315 318 319 319 319 319 319 320
312 312 312 313 313 313 313 313 314 314 313 313 313 314 314 314 315 320 316 316 318 319 320 322 322 319 316 317 315 312 311 312 317 317 316 315 315 315 316 316 316 317 318 320 320
309 311 311 312 312 312 313 314 314 314 314 315 315 315 315 315 320 318 316 316 316 319 319 321 322 320 318 317 317 316 313 315 317 320 316 315 315 316 316 315 315 316 317 318 318
308 310 311 312 311 311 312 313 314 314 315 315 315 315 315 318 323 318 316 316 320 321 321 323 318 319 319 319 319 319 317 318 318 318 316 316 316 317 318 317 317 317 316 317 316
308 310 311 312 310 310 312 313 314 314 314 315 315 315 316 324 324 319 319 320 320 321 323 317 317 319 318 318 318 318 319 319 319 317 316 317 317 317 317 318 318 318 318 317 317
311 309 309 310 310 310 312 314 314 314 314 314 315 314 323 324 318 320 320 321 321 321 321 319 317 317 319 318 318 319 319 319 319 317 317 318 319 318 317 318 318 318 318 316 316
311 312 312 310 310 310 311 312 315 315 315 315 315 317 321 319 316 320 320 319 320 320 321 320 320 317 317 317 317 317 318 319 319 319 319 320 320 319 319 319 319 319 319 320 319
310 311 312 313 313 312 312 311 312 315 314 315 315 317 323 322 316 316 316 317 318 317 318 318 320 319 318 316 317 318 319 320 321 322 321 320 319 319 319 320 320 320 320 321 319
310 310 310 312 313 312 312 311 311 316 315 314 317 321 323 321 316 316 317 317 317 317 318 319 319 318 320 321 320 321 321 319 320 318 320 320 319 320 319 320 321 321 320 321 320
309 308 309 311 312 312 312 312 314 317 319 319 321 321 320 318 316 316 318 317 317 317 319 319 317 317 318 321 324 319 318 318 319 320 320 321 321 322 322 322 322 322 323 325 325
308 307 307 311 311 312 314 315 318 322 317 322 322 322 319 318 317 317 317 317 317 316 318 319 319 320 320 323 320 319 319 320 321 321 322 321 322 323 323 323 326 325 326 325 325
307 306 304 309 312 312 313 317 317 317 316 318 319 321 318 318 317 319 317 317 316 318 319 320 320 321 323 322 321 320 320 320 321 322 322 321 322 323 324 328 326 325 324 324 323
305 304 303 305 313 314 317 319 318 318 318 319 322 319 317 317 317 319 317 317 317 319 320 319 320 321 322 321 321 321 322 321 322 322 321 322 323 322 329 326 325 324 323 323 323
303 302 302 304 315 316 319 317 319 320 319 325 320 317 317 316 319 318 317 317 318 320 321 319 320 321 322 321 322 322 321 321 323 323 325 323 326 322 329 327 326 324 323 322 321
301 301 302 305 310 316 321 318 320 321 337 321 318 318 317 317 317 318 318 318 318 319 320 320 321 321 321 321 320 319 320 321 323 324 322 325 330 326 328 329 326 323 322 321 320
300 301 307 310 317 319 319 317 321 329 338 323 320 318 317 319 319 319 319 318 318 320 319 319 322 321 322 322 321 320 321 325 324 323 326 327 327 325 332 328 326 325 323 321 320
300 304 312 311 317 318 318 318 326 334 324 323 320 317 317 319 319 319 320 319 318 320 319 319 320 319 319 321 320 319 322 326 326 322 322 321 324 329 331 327 325 324 322 321 320
301 313 317 317 317 317 318 321 329 328 322 321 319 317 319 320 320 320 320 319 318 317 317 318 321 317 317 318 320 319 326 327 328 323 328 325 331 333 327 325 324 322 322 321 320
305 315 320 322 320 317 319 323 325 324 320 320 319 319 319 320 319 319 320 319 318 316 317 317 319 317 318 319 319 322 327 326 324 328 323 326 327 328 326 326 325 323 323 321 320
312 317 322 319 318 319 321 322 323 320 319 319 320 319 319 321 320 319 321 321 320 319 316 317 318 318 318 319 324 326 326 329 329 325 327 325 324 329 326 326 326 323 322 321 320
314 324 319 316 318 320 325 325 321 319 319 319 319 319 320 321 321 321 323 321 319 318 316 316 318 318 316 319 324 327 329 327 324 323 325 329 326 326 325 324 325 322 321 321 320
316 325 317 316 321 323 324 321 314 318 319 319 318 319 321 320 322 322 323 322 319 317 316 317 315 318 320 322 323 322 321 323 321 327 328 331 328 325 323 321 323 322 322 320 319
315 322 318 320 324 321 323 320 319 319 318 318 319 319 318 320 323 322 323 322 320 319 317 317 315 322 322 322 320 319 320 320 322 327 330 329 323 323 323 322 323 322 320 320 319
316 324 322 321 321 321 322 324 322 319 319 318 318 319 321 321 320 323 323 322 320 317 321 320 321 323 322 324 321 321 322 322 327 329 330 325 326 324 323 323 323 322 320 319 318
319 321 319 317 318 320 320 322 321 321 319 318 319 321 320 321 321 322 322 321 320 323 320 321 324 324 323 322 322 323 325 328 328 328 326 327 327 324 323 322 323 321 320 319 318
319 316 316 317 319 321 321 321 323 320 318 318 319 320 319 321 321 323 322 321 320 320 320 319 322 322 324 323 323 326 327 326 327 326 327 326 326 321 321 319 321 320 319 318 317
314 314 314 317 318 319 320 320 320 317 318 318 319 319 319 320 319 318 317 317 318 318 319 321 322 324 324 324 324 328 328 328 323 325 326 325 323 321 320 321 320 320 317 317 317
Wind_Speed
16 15 15 14 13 12 12 12 11 9 8 8 9 12 14 17 21 12 2 5 7 10 16 18 18 16 14 5 5 2 3 4 7 4 7 9 9 8 6 3 3 4 2 9 21
14 14 14 14 13 13 12 11 10 9 9 9 12 15 18 20 20 6 2 7 7 9 16 12 10 8 4 6 4 5 4 7 4 4 5 9 9 10 8 9 7 7 11 11 17
13 13 14 14 14 12 11 10 10 10 10 11 12 14 18 17 5 3 3 9 11 12 15 20 26 12 8 6 6 5 5 7 9 4 7 7 8 7 9 7 7 7 7 10 7
14 13 13 14 14 14 13 11 10 10 11 13 15 17 20 3 4 6 3 6 10 15 16 17 9 9 5 6 5 4 7 7 9 8 5 7 8 6 5 8 8 10 9 6 9
17 15 14 15 15 15 14 13 11 10 11 13 18 20 13 4 5 6 2 3 11 15 13 9 8 7 7 8 10 7 7 10 10 9 8 10 8 9 10 11 10 10 9 9 6
22 18 15 15 16 17 16 15 11 10 10 12 15 18 5 6 7 2 5 8 10 11 10 10 7 8 5 6 6 8 13 13 9 12 10 12 13 5 8 11 10 9 11 10 10
30 23 19 17 17 17 17 16 14 10 9 10 14 13 5 11 8 6 8 9 11 15 2 8 8 7 9 8 8 8 10 14 17 19 11 12 11 9 16 12 12 14 10 10 10
32 30 22 19 20 20 19 18 17 13 12 11 14 6 6 6 4 13 14 18 7 15 15 14 2 3 3 8 8 8 6 7 17 13 10 6 8 11 11 8 11 11 9 9 12
33 32 28 20 20 22 21 17 18 13 12 10 8 2 8 8 8 12 8 11 17 18 12 12 6 6 6 5 7 3 5 8 9 9 8 5 9 8 10 7 7 8 10 11 10
33 33 31 26 22 23 21 19 17 13 7 6 8 6 8 3 9 13 7 13 13 9 8 6 4 5 5 3 4 7 9 9 7 12 13 9 8 13 14 11 13 11 7 5 9
35 33 31 28 23 22 23 9 4 2 2 7 7 8 7 7 11 3 9 14 11 9 7 10 4 7 10 3 5 5 6 9 14 13 6 7 11 18 18 12 10 13 17 18 18
38 36 33 28 23 19 18 3 5 7 8 11 14 6 10 9 7 7 9 7 8 9 10 6 11 8 5 6 7 8 9 10 7 13 11 13 16 22 20 8 13 17 17 16 17
39 38 34 28 23 14 7 14 14 13 3 12 9 3 2 2 5 3 4 4 8 9 11 8 14 17 4 4 7 7 7 10 11 11 8 14 11 10 5 18 16 16 14 16 17
40 40 33 32 9 12 6 8 12 9 2 6 5 3 5 6 0 5 2 3 4 9 8 7 8 15 8 7 6 5 9 14 13 10 8 4 14 9 6 11 12 14 16 16 16
40 39 36 21 14 8 13 11 12 1 3 1 4 4 6 5 3 4 8 5 6 10 7 10 16 11 9 4 7 7 14 13 7 12 5 10 4 6 15 13 13 13 14 13 13
42 37 36 6 8 11 17 14 7 1 4 3 1 7 8 7 5 2 6 6 4 4 11 16 19 5 3 4 8 11 11 8 7 5 3 5 5 6 4 8 12 14 16 18 16
45 37 21 6 5 10 14 8 2 2 2 5 7 10 10 7 4 6 8 7 5 6 9 12 15 9 13 10 7 8 5 4 5 5 3 11 5 2 7 9 12 14 15 16 15
42 19 9 6 5 9 9 4 3 7 9 7 9 13 4 10 6 10 10 3 10 8 5 6 7 15 17 12 7 7 6 4 3 2 6 14 4 2 3 9 8 10 14 17 17
38 16 7 4 1 5 3 1 3 7 8 8 10 6 8 14 9 9 7 5 5 7 4 5 6 20 20 10 4 5 5 5 4 4 2 4 2 3 11 13 14 16 16 21 22
27 12 3 2 1 1 1 4 4 7 6 7 4 9 8 8 8 9 7 6 3 6 5 5 12 9 15 12 5 4 2 4 3 3 4 5 6 2 13 11 11 16 17 19 22
6 3 4 2 4 2 2 3 6 11 6 5 6 4 8 6 8 9 4 5 4 5 4 4 3 9 11 9 9 6 2 5 4 3 3 4 5 2 6 10 8 12 15 18 20
10 2 3 2 1 3 1 2 1 6 5 3 1 5 6 8 6 7 7 6 5 1 3 2 3 4 16 10 14 3 4 2 3 5 4 3 5 6 9 10 6 12 15 17 19
6 4 2 2 2 4 5 4 3 3 5 4 5 6 7 5 4 7 7 5 11 7 4 3 3 5 9 7 14 12 16 6 2 3 3 2 6 7 11 12 7 10 15 17 19
3 4 3 3 3 5 5 5 6 7 1 3 5 7 5 7 7 7 10 11 12 3 6 3 2 4 4 10 9 14 16 16 2 3 3 6 7 7 14 14 8 10 14 17 16
3 3 4 4 4 6 6 7 7 3 4 6 3 5 5 3 8 7 11 10 11 3 3 3 3 6 13 16 17 19 10 8 5 5 4 6 7 9 13 10 5 8 12 16 18
3 4 5 6 8 6 5 6 5 4 7 7 7 8 6 5 7 7 7 3 6 5 6 4 5 7 10 14 16 8 8 2 5 3 4 6 5 7 8 9 6 8 12 14 16
11 10 3 6 6 6 5 3 5 6 5 8 8 6 8 7 7 8 9 7 9 10 6 4 3 2 5 13 15 5 3 4 4 6 3 4 6 5 7 11 4 7 8 12 13
Wind_Direction
40 37 33 30 27 25 23 20 20 17 8 0 351 345 340 333 331 322 2 359 335 325 320 320 298 283 222 258 244 22 25 261 269 316 292 348 15 351 354 54 338 342 275 288 314
33 31 28 24 21 18 14 11 11 9 359 348 338 333 330 329 325 305 67 25 1 322 328 323 319 311 265 240 228 142 174 237 278 4 356 344 5 330 7 353 340 343 323 321 324
24 20 18 17 13 8 5 358 352 351 347 343 339 337 335 329 297 136 58 16 338 317 303 293 277 255 263 196 218 215 219 275 301 342 17 333 336 333 355 336 312 300 306 324 341
23 16 12 10 6 2 354 344 334 328 330 332 333 333 335 335 15 176 58 360 340 311 303 292 333 359 340 347 326 179 266 280 285 300 355 298 289 304 284 260 253 270 281 293 297
17 9 4 360 358 356 352 340 323 319 323 329 330 339 348 281 241 168 38 354 310 292 273 351 329 10 354 328 330 347 318 311 316 324 312 314 293 273 272 265 260 257 257 257 259
16 6 358 353 350 348 347 344 324 311 312 320 327 342 342 289 13 208 263 231 273 293 345 327 347 346 294 302 349 315 309 297 301 287 278 259 260 233 264 266 267 256 249 230 228
15 5 357 352 345 339 338 338 327 308 303 307 318 350 272 246 1 297 289 317 300 302 246 281 341 355 325 319 280 318 311 299 275 263 252 242 264 233 246 234 245 238 239 224 220
11 7 352 342 340 337 327 321 330 298 289 299 311 337 259 265 288 359 330 310 332 325 316 315 243 351 263 258 283 273 273 285 283 322 244 202 255 270 268 233 246 231 216 211 219
6 3 359 342 334 329 324 316 310 303 285 291 316 183 270 211 26 353 332 310 327 304 285 277 154 211 276 270 306 255 248 293 290 317 318 323 289 276 297 304 282 257 241 235 229
1 357 355 350 335 329 323 318 304 286 285 277 259 308 267 324 1 301 314 329 302 276 280 230 205 217 269 201 251 326 327 318 307 302 319 326 315 322 309 314 296 296 306 40 56
357 353 348 346 334 334 328 335 7 17 222 226 244 230 289 329 306 330 15 326 357 342 284 278 129 227 248 37 323 305 308 291 285 288 10 329 320 296 290 289 46 46 41 30 20
353 351 344 338 330 319 312 266 39 273 305 272 272 271 270 264 284 15 6 3 335 305 295 309 246 235 255 315 306 299 288 286 301 341 339 318 291 281 292 99 56 43 33 25 12
349 347 343 334 326 312 289 274 334 326 334 302 181 237 284 280 281 302 53 358 312 302 342 322 293 299 273 310 319 311 311 328 317 314 295 284 290 317 33 58 50 39 28 19 11
345 343 343 335 325 327 286 333 354 18 334 202 175 164 259 209 337 82 166 123 298 309 324 308 309 334 340 1 21 333 305 291 290 304 287 301 291 309 55 41 48 35 25 8 350
340 339 334 333 295 309 340 3 349 21 357 104 102 154 259 248 223 164 288 193 254 279 355 292 277 287 294 30 357 266 281 284 296 300 336 12 39 326 42 27 24 22 6 345 340
337 336 330 336 289 273 314 326 304 1 244 133 215 340 343 319 3 350 285 248 196 359 337 321 336 210 62 336 272 279 345 335 322 289 54 166 124 275 32 24 13 359 354 346 337
334 336 322 263 229 345 347 322 356 220 129 45 358 330 300 287 25 327 319 49 63 13 352 328 30 1 40 350 330 343 358 1 353 4 253 326 354 195 13 33 20 1 344 325 331
333 346 335 291 310 341 334 18 260 340 27 13 334 303 334 44 17 354 337 105 64 43 334 355 321 26 331 304 275 326 109 148 258 298 290 304 178 59 48 48 10 355 335 333 334
335 349 290 275 349 356 44 301 303 32 15 343 335 1 11 355 16 356 345 67 62 54 55 309 295 319 297 348 5 314 11 129 103 344 347 259 173 221 16 13 8 355 341 334 335
334 329 303 87 343 311 48 251 76 75 16 353 341 29 344 341 19 341 336 47 44 42 56 277 303 296 343 309 55 110 11 333 63 320 297 296 322 346 1 4 352 350 342 339 333
328 310 120 26 209 26 237 319 63 97 76 1 3 315 324 15 339 329 325 101 60 11 353 2 30 298 311 325 315 36 12 248 148 113 229 306 280 91 359 8 352 337 333 339 334
323 306 64 112 59 211 174 71 327 34 29 8 274 320 14 350 304 308 19 326 79 144 302 109 240 300 295 276 65 18 289 53 100 280 202 222 273 284 28 9 8 333 337 338 341
317 275 197 161 19 338 1 4 127 34 16 3 334 355 335 290 349 305 322 22 18 25 61 1 327 325 339 350 346 343 319 284 282 51 211 250 267 329 13 354 357 340 341 341 340
290 308 351 0 74 23 4 358 355 160 91 113 256 283 286 10 325 309 308 4 4 74 155 120 242 232 227 266 290 304 297 297 130 141 232 230 278 4 356 340 348 344 345 333 339
225 339 349 319 347 340 324 317 294 352 60 351 287 251 54 352 305 289 342 348 344 169 194 150 256 291 292 302 303 306 340 38 60 310 241 328 347 2 337 327 11 350 342 341 339
325 6 345 296 290 259 265 255 284 13 28 316 296 340 0 300 274 312 330 343 262 325 4 311 285 314 301 291 291 307 328 350 254 304 20 346 330 341 304 342 27 350 340 339 334
349 348 332 289 298 296 250 23 7 359 291 325 20 353 309 318 333 296 270 246 239 261 263 248 230 275 280 305 324 291 200 272 54 82 18 349 282 302 343 351 14 331 333 334 335